User: anonymous   Login
Location: Unspecified
(0.0000°N, 0.0000°E)
Time: 23:19:41
(UTC+00:00)
Language:

TBA - TO BE ASSIGNED - Orbit

View from above orbital plane
View from above orbital plane
View from above satellite
View from above satellite

Ground track
Ground track

The orbit is defined by the following mean orbital elements,

1 68579U          26145.37669610 +.00000000 +00000-0 +64117-3 0 00006
2 68579  51.8773 287.0546 0001589 308.0607  52.0236 15.37483146    07
Epoch (UTC): 25 May 2026 09:02:26
Eccentricity: 0.0001589
inclination: 51.8773°
perigee height: 452 km
apogee height: 455 km
right ascension of ascending node: 287.0546°
argument of perigee: 308.0607°
revolutions per day: 15.37483146
mean anomaly at epoch: 52.0236°

The dashed part of the orbit path shows where the satellite is in the earth's shadow,  

DLR